Location: *
(60.1759°S, 155.0663°W)
Time: 21:36:05
(UTC+00:00)

Sich 1 - Pass Details

Date: 17 September 2019
Orbit: 594 x 626 km, 82.5° (Epoch: 16 October)

Event Time Altitude Azimuth Distance (km) Brightness Sun altitude
Exits shadow 14:07:57 34° 282° (WNW) 1,021 3.6 -17.2°
Maximum altitude 14:09:04 40° 246° (WSW) 908 3.6 -17.0°
Drops below altitude 10° 14:13:12 10° 175° (S) 1,982 6.1 -16.6°
Sets 14:15:34 0° 167° (SSE) 2,894 7.1 -16.3°
